Flag for United Kingdom Weather past 2 weeks in Canterbury, England, United Kingdom

Now
39 °F

Chilly.


Feels Like: 27 °F
Forecast: 33 / 42 °F
Wind: 26 mph from Northwest

Location: Manston

Current Time: Feb 1, 2015 at 12:03:59 PM

Latest Report: Feb 1, 2015 at 11:00 AM


Visibility: 18 mi

Pressure: 29.38 "Hg

Humidity: 84%

Dew point: 34 °F

Location of CanterburyLocation

Historic Weather in Canterbury — Graph

°F

Canterbury temperature yesterday

Maximum temperature yesterday: 38 °F (at 7:00 PM)
Minimum temperature yesterday: 30 °F (at 6:00 AM)
Average temperature yesterday: 35 °F

Past Weeks' High & Low Weather Summary

 TemperatureHumidityPressure
High49 °F (Jan 26, 11:00 AM)97% (Jan 18, 8:00 AM)30.48 "Hg (Jan 18, 8:00 AM)
Low28 °F (Jan 20, 8:00 AM)62% (Jan 29, 2:00 PM)28.79 "Hg (Jan 29, 5:00 PM)
Average38 °F84%29.82 "Hg
* Reported Jan 17 10:00 AM — Feb 1 10:00 AM, Canterbury, Weather by CustomWeather, © 2014

Note: Actual official high and low records may vary slightly from our data, if they occured in-between our weather recording intervals... More about our weather records

Advertising

Canterbury weather history for previous 24 hours

 ConditionsComfort  
Time TempWeatherWind HumidityBarometerVisibility
10:00 AM
Feb 1
38 °FChilly.28 mph81%29.35 "Hg17 mi
9:00 AM37 °FChilly.22 mph82%29.32 "Hg19 mi
8:00 AM36 °FChilly.25 mph83%29.32 "Hg19 mi
7:00 AM37 °FChilly.24 mph77%29.29 "Hg22 mi
6:00 AM36 °FChilly.23 mph84%29.29 "Hg14 mi
5:00 AM36 °FChilly.23 mph82%29.29 "Hg22 mi
4:00 AM36 °FChilly.21 mph79%29.29 "Hg19 mi
3:00 AM36 °FChilly.20 mph76%29.26 "Hg25 mi
2:00 AM36 °FChilly.21 mph71%29.26 "Hg28 mi
1:00 AM37 °FChilly.24 mph71%29.26 "Hg19 mi
12:00 AM37 °FChilly.26 mph70%29.23 "Hg25 mi
11:00 PM
Jan 31
38 °FChilly.28 mph71%29.23 "Hg22 mi
10:00 PM38 °FChilly.26 mph73%29.23 "Hg19 mi
9:00 PM38 °FChilly.25 mph76%29.21 "Hg19 mi
8:00 PM37 °FRain showers. Overcast.29 mph89%29.18 "Hg6 mi
7:00 PM38 °FLight rain. Overcast.25 mph88%29.15 "Hg12 mi
6:00 PM37 °FRain. Overcast.21 mph94%29.12 "Hg6 mi
5:00 PM35 °FLight rain. Overcast.16 mph96%29.12 "Hg4 mi
4:00 PM37 °FRain showers. Cloudy.15 mph88%29.06 "Hg14 mi
3:00 PM38 °FChilly.12 mph86%29.06 "Hg22 mi
2:00 PM38 °FChilly.14 mph87%29.03 "Hg22 mi
1:00 PM38 °FChilly.14 mph89%29.00 "Hg10 mi
12:00 PM37 °FChilly.13 mph90%29.00 "Hg13 mi
Weather by CustomWeather, © 2014

See weather overviewHow to use our weather pages